Location: Casilda
(33.0440°S, 61.1680°W)
Time: 02:07:17
(UTC-03:00)

ISS - Pass Details

Date: 15 February 2020
Orbit: 415 x 423 km, 51.6° (Epoch: 27 February)

Event Time Altitude Azimuth Distance (km) Brightness Sun altitude
Exits shadow 04:37:46 40° 145° (SE) 637 -2.5 -24.0°
Maximum altitude 04:37:51 40° 140° (SE) 636 -2.4 -24.0°
Drops below altitude 10° 04:41:04 10° 68° (ENE) 1,501 -0.6 -23.5°
Sets 04:43:13 0° 60° (ENE) 2,360 0.4 -23.1°
